This demonstration page uses our WeatherBlox Daily Observations layout. Learn more.

Left ArrowRight Arrow

Hourly Observations for February 2, 2015

Temp ( °F °C ) Dew Point ( °F °C ) Humidity (%) Winds ( mph kmh ) Pressure ( in mb ) Visibility ( mi km ) Precip ( " mm )
12:52 am 00:52 Clear 1 -17.2 -4 -20 79 79 NNW 10 17 30.41 1030 10 16 0.00 0.00
1:52 am 01:52 Clear 0 -17.8 -5 -20.6 79 79 NW 9 15 30.42 1030 10 16 0.00 0.00
2:52 am 02:52 Clear -2 -18.9 -6 -21.1 83 83 NW 6 9 30.40 1029 10 16 0.00 0.00
3:52 am 03:52 Clear -3 -19.4 -7 -21.7 82 82 NW 3 6 30.37 1029 10 16 0.00 0.00
4:52 am 04:52 Clear -1 -18.3 -6 -21.1 79 79 W 3 6 30.37 1028 10 16 0.00 0.00
5:52 am 05:52 Clear -2 -18.9 -7 -21.7 79 79 Calm 30.37 1029 10 16 0.00 0.00
6:52 am 06:52 Clear -3 -19.4 -7 -21.7 82 82 Calm 30.37 1029 10 16 0.00 0.00
7:52 am 07:52 Mostly Sunny -1 -18.3 -6 -21.1 79 79 Calm 30.37 1029 10 16 0.00 0.00
8:52 am 08:52 Partly Cloudy 2 -16.7 -3 -19.4 80 80 Calm 30.38 1029 10 16 0.00 0.00
9:52 am 09:52 Partly Cloudy 2 -16.7 -3 -19.4 80 80 SSE 6 9 30.37 1029 10 16 0.00 0.00
10:52 am 10:52 Partly Cloudy 5 -15 0 -17.8 79 79 SE 9 15 30.35 1028 10 16 0.00 0.00
11:52 am 11:52 Partly Cloudy 9 -12.8 3 -16.1 77 77 S 13 20 30.30 1026 10 16 0.00 0.00
12:52 pm 12:52 Partly Cloudy 11 -11.7 4 -15.6 73 73 S 14 22 30.27 1025 10 16 0.00 0.00
1:52 pm 13:52 Mostly Cloudy 12 -11.1 5 -15 73 73 S 15 24 30.23 1024 10 16 0.00 0.00
2:52 pm 14:52 Mostly Cloudy 13 -10.6 6 -14.4 74 74 SSE 18 30 30.16 1022 10 16 0.00 0.00
3:52 pm 15:52 Mostly Cloudy 13 -10.6 7 -13.9 77 77 SSE 15 24 30.15 1021 10 16 0.00 0.00
4:52 pm 16:52 Partly Cloudy 15 -9.4 7 -13.9 70 70 SSW 16 26 30.18 1022 10 16 0.00 0.00
5:52 pm 17:52 Cloudy 15 -9.4 8 -13.3 74 74 S 14 22 30.19 1022 10 16 0.00 0.00
6:52 pm 18:52 Mostly Clear 14 -10 8 -13.3 77 77 S 13 20 30.19 1022 10 16 0.00 0.00
7:52 pm 19:52 Mostly Clear 14 -10 8 -13.3 77 77 S 13 20 30.18 1022 10 16 0.00 0.00
8:52 pm 20:52 Clear 12 -11.1 7 -13.9 80 80 SSE 8 13 30.18 1022 10 16 0.00 0.00
9:52 pm 21:52 Clear 11 -11.7 7 -13.9 84 84 SSE 9 15 30.18 1022 10 16 0.00 0.00
10:52 pm 22:52 Clear 10 -12.2 7 -13.9 87 87 SSE 7 11 30.16 1022 10 16 0.00 0.00
11:52 pm 23:52 Clear 10 -12.2 7 -13.9 87 87 ESE 3 6 30.16 1021 10 16 0.00 0.00

Powered by AerisWeather